COSMOS 2544 (759)

Last updated on Wed Oct 15 2025 00:03:18 GMT+0000 (Coordinated Universal Time)

1 44850U 19088A 25286.66707231 .00000045 00000+0 00000+0 0 9999 2 44850 65.4282 81.9665 0012066 245.6942 114.1893 2.13101902 45467
UTC large
Height (km)
Speed (km/s)
/
Latitude / Longitude
Inclination (degrees)
Orbital Period (minutes)
Azimuth
Elevation
Range (km)
Doppler Factor

Next 0 passes for location: London (51.5072 / 0.1276)

Sorry there are no passes over London.